Weather in Prokopyevka

Russia / Komi Republic     59°16′49″N   49°40′37″E
temp.,
°C
wind,
m/s
gust,
m/s
humid.,
%
clouds,
%
prec.,
mm/h
press.,
hPa
HPBL,
m
13 may, thu
thu1300:00+14se11564 0.0 102711
03:00+13se115814 0.0 102710
06:00+17se125457 0.0 102788
09:00+20se235331 0.0 1026260
12:00+26sse45365 0.0 10252650
15:00+26s45328 0.0 10232656
18:00+22sse374890 0.0 1022244
21:00+17s2365100 0.0 102255
14 may, fri
fri1400:00+15sse287769 0.0 1022156
03:00+15sse3117853 0.2 1021265
06:00+17s41075100 0.1 1020394
09:00+20ssw586011 0.1 1019930
12:00+24sw474910 0.0 10191872
15:00+25sw464027 0.0 10182276
18:00+22sw3755100 0.0 1017322
21:00+18sw287330 0.1 1018187
15 may, sat
sat1500:00+15wsw2289100 0.3 101821
03:00+14sw119313 0.3 101910
06:00+18ssw127728 0.0 1018170
09:00+22s3560100 0.0 1017829
12:00+25ssw4748100 0.0 10161664
15:00+27ssw484295 0.0 10151920
18:00+25ssw5104717 0.0 1013937
21:00+20ssw4145693 0.0 1013735
16 may, sun
sun1600:00+17ssw414650 0.0 1013519
03:00+15ssw3117622 0.0 1013279
06:00+18ssw41071100 0.0 1013347
09:00+23ssw595065 0.0 1012967
12:00+24ssw5124643 0.0 10111650
15:00+25wsw5104883 0.1 10102285
18:00+18s81380100 4.4 1011506
21:00+15ssw28942 5.3 1010165
17 may, mon
mon1700:00+14w379018 0.7 1011224
03:00+13sw3119449 0.7 1012362
06:00+14wsw488830 0.0 1013474
09:00+18w476675 0.0 10141274
12:00+20w5759100 0.2 10151491
15:00+20wnw465633 0.3 10161450
18:00+17nw357349 0.1 1017369
21:00+13n259288 0.1 1019111